Retour au catalogue

RAFS

ActifScienceSSO
NORAD 69923·PAYLOAD·🇺🇸 United States

Lancé Jul 7, 2026 depuis Vandenberg Space Force Base

Loading…

Prochains Passages (prochaines 24 heures)

TLE

FraisSource: Space-Track

Époque: Sep 14, 2026, 03:35 UTC

1 69923U 26156BG  26257.14958649  .00001209  00000-0  12443-3 0  9996
2 69923  97.7436 156.4619 0006198 290.5444  69.5110 14.92110767 10260

Suivez RAFS en temps réel avec AllMySat

Download on the App Store